AirNav   TITAN Aviation Fuels
 
 973 users online  

3OH0 Andy Barnhart Memorial Airport
New Carlisle, Ohio, USA

GOING TO NEW CARLISLE?


FAA INFORMATION EFFECTIVE 09 SEPTEMBER 2021

Location

FAA Identifier: 3OH0
Lat/Long: 39-55-51.2120N 084-00-48.7660W
39-55.853533N 084-00.812767W
39.9308922,-84.0135461
(estimated)
Elevation: 895 ft. / 273 m (estimated)
Variation: 04W (1985)
From city: 1 mile SE of NEW CARLISLE, OH
Time zone: UTC -4 (UTC -5 during Standard Time)
Zip code: 45344

Airport Operations

Airport use: Private use. Permission required prior to landing
Activation date: 09/1957
Control tower: no
ARTCC: INDIANAPOLIS CENTER
FSS: DAYTON FLIGHT SERVICE STATION
Attendance: UNATNDD
Wind indicator: yes
Segmented circle: no
Lights: ACTVT LIRL RWY 09/27 & 10/28 - CTAF.
Beacon: white-green (lighted land airport)

Airport Communications

CTAF: 122.9
COLUMBUS APPROACH: 118.425
COLUMBUS DEPARTURE: 118.425
CLASS C: 118.425
IC: 118.425
WX ASOS at DAY (10 nm W): PHONE 937-415-6819
WX AWOS-3PT at SGH (10 nm SE): 134.975 (937-324-4532)
WX AWOS-3 at I19 (14 nm S): 118.525 (937-372-4668)
WX AWOS-3 at I74 (17 nm NE): 118.325 (937-484-5863)
WX AWOS-3 at SCA (20 nm N): 120.425 (937-492-3683)

Nearby radio navigation aids

VOR radial/distance  VOR name  Freq  Var
DQNr107/18.4DAYTON VOR/DME114.5001W
RODr181/21.5ROSEWOOD VORTAC117.5005W
MXQr346/31.6MIDWEST VOR/DME112.9004W

 
NDB name  Hdg/Dist  Freq  Var  ID
HOOK FIELD042/32.823904WHKF .... -.- ..-.
COURT HOUSE311/34.941406WCSS -.-. ... ...

Airport Services

Airframe service: NONE
Powerplant service: NONE

Runway Information

Runway 9/27

Dimensions: 2000 x 30 ft. / 610 x 9 m
Surface: asphalt
Runway edge lights: low intensity
RUNWAY 9  RUNWAY 27
Traffic pattern: leftleft

Runway 10/28

Dimensions: 2000 x 150 ft. / 610 x 46 m
Surface: turf
Runway edge lights: low intensity
RUNWAY 10  RUNWAY 28
Traffic pattern: leftleft

Airport Ownership and Management from official FAA records

Ownership: Privately-owned
Owner: FLYING ANGELS, INC
PO BOX 7
NEW CARLISLE, OH 45344-0007
Phone 937-260-8517
Manager: DUANE JONES
10563 MILTON CARLISLE RD
NEW CARLISLE, OH 45344-9251
Phone 937-475-1754

Airport Operational Statistics

Aircraft based on the field: 125
Single engine airplanes: 118
Multi engine airplanes: 2
Helicopters: 1
Ultralights: 4
    

Additional Remarks

FOR CD CTC COLUMBUS APCH AT 614-338-8537.

Instrument Procedures

There are no published instrument procedures at 3OH0.

Some nearby airports with instrument procedures:

KFFO - Wright-Patterson Air Force Base (6 nm S)
KDAY - James M Cox Dayton International Airport (10 nm W)
KSGH - Springfield-Beckley Municipal Airport (10 nm SE)
I19 - Greene County-Lewis A Jackson Regional Airport (14 nm S)
I74 - Grimes Field Airport (17 nm NE)
3I7 - Dayton-Phillipsburg Airport (18 nm W)
I17 - Piqua Airport/Hartzell Field (19 nm NW)
KSCA - Sidney Municipal Airport (20 nm N)
 
Loc | Ops | Rwys | IFR | FBO | Links
Com | Nav | Svcs | Stats | Notes
Area around 3OH0 (Andy Barnhart Memorial Airport)
 
Road maps at: MapQuest Bing Google
 
Aerial photo
WARNING: Photo may not be current or correct
Aerial photo of 3OH0 (Andy Barnhart Memorial Airport)
Photo taken 07-May-2011
looking east.

Do you have a better or more recent aerial photo of Andy Barnhart Memorial Airport that you would like to share? If so, please send us your photo.

 
Sectional chart

 
Airport distance calculator
Flying to Andy Barnhart Memorial Airport? Find the distance to fly.

From to 3OH0

Sunrise and sunset
Times for 19-Sep-2021
 Local
(UTC-4)
 Zulu
(UTC)
Morning civil twilight06:5510:55
Sunrise07:2211:22
Sunset19:3823:38
Evening civil twilight20:0500:05

Current date and time
Zulu (UTC)  19-Sep-2021 23:14:41
Local (UTC-4)  19-Sep-2021 19:14:41
 
METAR
KFFO 
7nm S 
192256Z AUTO 17007KT 10SM CLR 28/16 A3008 RMK AO2 SLP184 T02820155
KDAY 
10nm W 
192256Z 15006KT 10SM SCT080 BKN220 28/17 A3009 RMK AO2 SLP183 T02780167
KSGH 
11nm SE 
192256Z AUTO 17005KT 10SM CLR 27/18 A3010 RMK AO2 SLP186 T02720183 $
KI74 
17nm NE 
192255Z AUTO 00000KT 10SM CLR 27/16 A3009 RMK AO2
TAF
KFFO 
7nm S 
191901Z 1919/2101 12006KT 9999 SCT050 BKN250 QNH3006INS BECMG 2000/2001 11006KT 9999 BKN250 QNH3007INS BECMG 2007/2008 14009KT 9999 VCSH SCT035 BKN100 BKN220 QNH3005INS BECMG 2017/2018 18012KT 9000 -SHRA VCTS SCT025CB BKN040 BKN180 QNH3006INS BECMG 2100/2101 16012KT 9999 VCSH BKN040 BKN180 QNH3004INS TX32/1920Z TN20/2011Z
KDAY 
10nm W 
191729Z 1918/2018 15008KT P6SM SCT050 BKN250 FM200000 13005KT P6SM BKN250 FM200900 14005KT P6SM VCSH OVC100 FM201400 16008KT P6SM VCSH OVC070
NOTAMs
Click for the latest NOTAMs
NOTAMs are issued by the DoD/FAA and will open in a separate window not controlled by AirNav.

 

 
 

Would you like to see your business listed on this page?

 If your business provides an interesting product or service to pilots, flight crews, aircraft, or users of the Andy Barnhart Memorial Airport, you should consider listing it here.  To start the listing process, click on the button below
 
Add a business
 

Other Pages about Andy Barnhart Memorial Airport

Update a link
 
Copyright © AirNav, LLC. All rights reserved. Privacy Policy  Contact